Location: Dillon
(41.1766°N, 107.0923°W)
Time: 12:44:53
(UTC+00:00)

SJ-7 - Pass Details

Date: 15 December 2022
Orbit: 549 x 592 km, 97.7° (Epoch: 05 February)

Event Time Altitude Azimuth Distance (km) Brightness Sun altitude
Rises 12:31:23 0° 19° (NNE) 2,743 8.0 -20.9°
Reaches altitude 10° 12:33:35 10° 25° (NNE) 1,849 7.1 -20.5°
Maximum altitude 12:37:26 45° 99° (E) 771 5.5 -19.8°
Drops below altitude 10° 12:41:18 10° 173° (S) 1,858 7.3 -19.1°
Sets 12:43:30 0° 180° (S) 2,758 8.1 -18.7°
